User: anonymous   Login
Location: Arrodets-la-Barthe
(43.0306°N, 0.2829°E)
Time: 12:14:06
(UTC+00:00)
Language:

Cosmos 2344 - Orbit

View from above orbital plane
View from above orbital plane
View from above satellite
View from above satellite

Ground track
Ground track

The orbit data is extracted from the following two-line orbital elements,

1 24827U 97028A   22272.88843244  .00000126  00000-0  20101-2 0  9990
2 24827  63.3114 319.6949 1053677  52.2319 109.3713 11.07933196 24285
Epoch (UTC): 29 September 2022 21:19:20
Eccentricity: 0.1053677
inclination: 63.3114°
perigee height: 1226 km
apogee height: 3017 km
right ascension of ascending node: 319.6949°
argument of perigee: 52.2319°
revolutions per day: 11.07933196
mean anomaly at epoch: 109.3713°
orbit number at epoch: 2428

The dashed part of the orbit path shows where the satellite is in the earth's shadow,  

DLR